Find Starlink 34508

NORAD ID: 64601 Int'l Des: 2025-137 Owner: SPXS Country: US Constellation: starlink operational
LEOCIRCULAR

Aktuelle Ansicht

3D-Globus wird geladen...

Über Starlink 34508

Beschreibung wird geladen...

Nächste Überflüge

Passes for default location (London). Set your location on the main map for personalized predictions.

Höhenverlauf

Loading altitude history...

Zweizeiliger Elementsatz

1 64601U 25137H 26149.79191319 .00020133 00000-0 68990-3 0 9991
2 64601 53.1608 318.4086 0000997 72.1205 287.9904 15.30206810 53153
Epoch: 29. Mai 2026 • Age: 16 hours

Aktueller Status

Höhe 474.9 km
Geschwindigkeit 7.63 km/s
Subsatellitenpunkt 12.60°N, 84.26°W
Startdatum 25. Juni 2025
Alter 0.9 years
Typ internet

Technische Details

Klassifizierung Payload
Masse 575.00 kg
Trockenmasse 530.00 kg
Gesamtmasse 575.00 kg
Länge 0.30 m
Durchmesser 4.10 m
Spannweite 29.00 m
Form Box + pan
Hersteller SPXS
Bus-Typ Starlink V2MO
Phasenstatus In Orbit
Besitzer/Staat SPXS/US

Most Searched